Time,TemperatureF,DewpointF,PressureIn,WindDirection,WindDirectionDegrees,WindSpeedMPH,WindSpeedGustMPH,Humidity,HourlyPrecipIn,Conditions,Clouds,dailyrainin,SoftwareType,DateUTC
2013-01-26 00:03:00,33.1,27.6,30.05,ENE,67,0.0,0.0,80,0.00,,,0.00,WUHU21623XXSP,2013-01-26 08:03:00,
2013-01-26 00:12:00,33.1,27.6,30.05,WNW,292,0.0,0.0,80,0.00,,,0.00,WUHU21623XXSP,2013-01-26 08:12:00,
2013-01-26 00:25:00,33.1,27.6,30.05,NNW,337,0.0,0.0,80,0.00,,,0.00,WUHU21623XXSP,2013-01-26 08:25:00,
2013-01-26 00:34:00,32.9,27.4,30.05,WNW,292,0.0,0.0,80,0.00,,,0.00,WUHU21623XXSP,2013-01-26 08:34:00,
2013-01-26 00:46:00,32.5,27.2,30.04,ESE,112,0.0,0.0,80,0.00,,,0.00,WUHU21623XXSP,2013-01-26 08:46:00,
2013-01-26 00:58:00,32.2,26.8,30.04,ENE,67,0.0,0.0,80,0.00,,,0.00,WUHU21623XXSP,2013-01-26 08:58:00,
2013-01-26 01:03:00,32.2,26.8,30.04,ENE,67,0.0,0.0,80,0.00,,,0.00,WUHU21623XXSP,2013-01-26 09:03:00,
2013-01-26 01:12:00,31.8,26.4,30.03,West,270,0.0,0.0,80,0.00,,,0.00,WUHU21623XXSP,2013-01-26 09:12:00,
2013-01-26 01:18:00,31.6,26.2,30.04,West,270,0.0,0.0,80,0.00,,,0.00,WUHU21623XXSP,2013-01-26 09:18:00,
2013-01-26 01:23:00,31.6,26.2,30.03,WNW,292,0.0,0.0,80,0.00,,,0.00,WUHU21623XXSP,2013-01-26 09:23:00,
2013-01-26 01:35:00,31.3,25.9,30.03,ENE,67,0.0,0.0,80,0.00,,,0.00,WUHU21623XXSP,2013-01-26 09:35:00,
2013-01-26 01:40:00,31.1,25.7,30.03,SE,135,0.0,0.0,80,0.00,,,0.00,WUHU21623XXSP,2013-01-26 09:40:00,
2013-01-26 01:45:00,30.9,25.5,30.04,SE,135,0.0,0.0,80,0.00,,,0.00,WUHU21623XXSP,2013-01-26 09:45:00,
2013-01-26 01:50:00,30.7,25.6,30.03,East,90,0.0,0.0,81,0.00,,,0.00,WUHU21623XXSP,2013-01-26 09:50:00,
2013-01-26 01:58:00,30.7,25.6,30.04,SW,225,0.0,0.0,81,0.00,,,0.00,WUHU21623XXSP,2013-01-26 09:58:00,
2013-01-26 02:03:00,30.7,25.6,30.04,ENE,67,0.0,0.0,81,0.00,,,0.00,WUHU21623XXSP,2013-01-26 10:03:00,
2013-01-26 02:08:00,30.7,25.6,30.04,ENE,67,0.0,0.0,81,0.00,,,0.00,WUHU21623XXSP,2013-01-26 10:08:00,
2013-01-26 02:16:00,30.4,25.3,30.03,NE,45,0.0,0.0,81,0.00,,,0.00,WUHU21623XXSP,2013-01-26 10:16:00,
2013-01-26 02:21:00,30.4,25.3,30.03,ESE,112,0.0,0.0,81,0.00,,,0.00,WUHU21623XXSP,2013-01-26 10:21:00,
2013-01-26 02:29:00,30.0,24.9,30.03,SSW,202,0.0,0.0,81,0.00,,,0.00,WUHU21623XXSP,2013-01-26 10:29:00,
2013-01-26 02:38:00,30.0,24.9,30.02,ESE,112,0.0,0.0,81,0.00,,,0.00,WUHU21623XXSP,2013-01-26 10:38:00,
2013-01-26 02:43:00,30.0,24.9,30.03,ESE,112,0.0,0.0,81,0.00,,,0.00,WUHU21623XXSP,2013-01-26 10:43:00,
2013-01-26 02:48:00,30.0,24.9,30.03,NE,45,0.0,0.0,81,0.00,,,0.00,WUHU21623XXSP,2013-01-26 10:48:00,
2013-01-26 02:55:00,29.8,24.7,30.02,ESE,112,0.0,0.0,81,0.00,,,0.00,WUHU21623XXSP,2013-01-26 10:55:00,
2013-01-26 03:00:00,29.8,24.7,30.02,ESE,112,0.0,0.0,81,0.00,,,0.00,WUHU21623XXSP,2013-01-26 11:00:00,
2013-01-26 03:05:00,29.7,24.5,30.02,South,180,0.0,0.0,81,0.00,,,0.00,WUHU21623XXSP,2013-01-26 11:05:00,
2013-01-26 03:12:00,29.3,24.2,30.02,ESE,112,0.0,0.0,81,0.00,,,0.00,WUHU21623XXSP,2013-01-26 11:12:00,
2013-01-26 03:17:00,29.1,24.0,30.02,ENE,67,0.0,0.0,81,0.00,,,0.00,WUHU21623XXSP,2013-01-26 11:17:00,
2013-01-26 03:31:00,28.9,24.0,30.01,East,90,0.0,0.0,81,0.00,,,0.00,WUHU21623XXSP,2013-01-26 11:31:00,
2013-01-26 03:36:00,28.9,23.8,30.01,WNW,292,0.0,0.0,81,0.00,,,0.00,WUHU21623XXSP,2013-01-26 11:36:00,
2013-01-26 03:42:00,28.8,23.6,30.01,NE,45,0.0,0.0,81,0.00,,,0.00,WUHU21623XXSP,2013-01-26 11:42:00,
2013-01-26 03:55:00,28.4,23.3,30.01,NE,45,0.0,0.0,81,0.00,,,0.00,WUHU21623XXSP,2013-01-26 11:55:00,
2013-01-26 04:00:00,28.4,23.3,30.01,NE,45,0.0,0.0,81,0.00,,,0.00,WUHU21623XXSP,2013-01-26 12:00:00,
2013-01-26 04:05:00,28.4,23.3,30.01,NE,45,0.0,0.0,81,0.00,,,0.00,WUHU21623XXSP,2013-01-26 12:05:00,
2013-01-26 04:18:00,27.7,22.9,30.01,NE,45,0.0,0.0,82,0.00,,,0.00,WUHU21623XXSP,2013-01-26 12:18:00,
2013-01-26 04:27:00,27.7,22.9,30.00,NE,45,0.0,0.0,82,0.00,,,0.00,WUHU21623XXSP,2013-01-26 12:27:00,
2013-01-26 04:32:00,27.5,22.7,30.01,NE,45,0.0,0.0,82,0.00,,,0.00,WUHU21623XXSP,2013-01-26 12:32:00,
2013-01-26 04:38:00,27.3,22.5,30.00,NE,45,0.0,0.0,82,0.00,,,0.00,WUHU21623XXSP,2013-01-26 12:38:00,
2013-01-26 04:47:00,27.3,22.5,30.00,NE,45,0.0,0.0,82,0.00,,,0.00,WUHU21623XXSP,2013-01-26 12:47:00,
2013-01-26 04:53:00,27.1,22.3,30.00,NE,45,0.0,0.0,82,0.00,,,0.00,WUHU21623XXSP,2013-01-26 12:53:00,
2013-01-26 04:58:00,27.1,22.3,29.99,NE,45,0.0,0.0,82,0.00,,,0.00,WUHU21623XXSP,2013-01-26 12:58:00,
2013-01-26 05:03:00,27.1,22.3,30.00,NE,45,0.0,0.0,82,0.00,,,0.00,WUHU21623XXSP,2013-01-26 13:03:00,
2013-01-26 05:08:00,27.0,22.1,30.00,NE,45,0.0,0.0,82,0.00,,,0.00,WUHU21623XXSP,2013-01-26 13:08:00,
2013-01-26 05:13:00,27.0,22.1,30.00,NE,45,0.0,0.0,82,0.00,,,0.00,WUHU21623XXSP,2013-01-26 13:13:00,
2013-01-26 05:18:00,27.0,22.1,30.00,NE,45,0.0,0.0,82,0.00,,,0.00,WUHU21623XXSP,2013-01-26 13:18:00,
2013-01-26 05:23:00,26.8,22.1,30.00,NE,45,0.0,0.0,82,0.00,,,0.00,WUHU21623XXSP,2013-01-26 13:23:00,
2013-01-26 05:33:00,26.8,22.0,30.00,NE,45,0.0,0.0,82,0.00,,,0.00,WUHU21623XXSP,2013-01-26 13:33:00,
2013-01-26 05:38:00,26.8,22.0,30.00,NE,45,0.0,0.0,82,0.00,,,0.00,WUHU21623XXSP,2013-01-26 13:38:00,
2013-01-26 05:46:00,26.6,21.8,29.99,NE,45,0.0,0.0,82,0.00,,,0.00,WUHU21623XXSP,2013-01-26 13:46:00,
2013-01-26 05:55:00,26.6,21.8,30.00,NE,45,0.0,0.0,82,0.00,,,0.00,WUHU21623XXSP,2013-01-26 13:55:00,
2013-01-26 06:00:00,26.6,21.8,30.00,NE,45,0.0,0.0,82,0.00,,,0.00,WUHU21623XXSP,2013-01-26 14:00:00,
2013-01-26 06:05:00,26.4,21.9,29.99,NE,45,0.0,0.0,83,0.00,,,0.00,WUHU21623XXSP,2013-01-26 14:05:00,
2013-01-26 06:10:00,26.6,22.1,29.99,NE,45,0.0,0.0,83,0.00,,,0.00,WUHU21623XXSP,2013-01-26 14:10:00,
2013-01-26 06:15:00,26.6,22.1,29.99,NE,45,0.0,0.0,83,0.00,,,0.00,WUHU21623XXSP,2013-01-26 14:15:00,
2013-01-26 06:23:00,26.4,21.9,29.99,NE,45,0.0,0.0,83,0.00,,,0.00,WUHU21623XXSP,2013-01-26 14:23:00,
2013-01-26 06:40:00,26.2,21.7,29.99,NE,45,0.0,0.0,83,0.00,,,0.00,WUHU21623XXSP,2013-01-26 14:40:00,
2013-01-26 06:46:00,26.2,21.7,29.99,NE,45,0.0,0.0,83,0.00,,,0.00,WUHU21623XXSP,2013-01-26 14:46:00,
2013-01-26 07:12:00,26.1,21.6,30.00,NE,45,0.0,0.0,83,0.00,,,0.00,WUHU21623XXSP,2013-01-26 15:12:00,
2013-01-26 07:19:00,26.2,21.7,29.99,NE,45,0.0,0.0,83,0.00,,,0.00,WUHU21623XXSP,2013-01-26 15:19:00,
2013-01-26 07:31:00,25.9,21.4,29.99,NE,45,0.0,0.0,83,0.00,,,0.00,WUHU21623XXSP,2013-01-26 15:31:00,
2013-01-26 07:40:00,25.9,21.4,29.99,NE,45,0.0,0.0,83,0.00,,,0.00,WUHU21623XXSP,2013-01-26 15:40:00,
2013-01-26 07:53:00,25.7,21.2,29.99,NE,45,0.0,0.0,83,0.00,,,0.00,WUHU21623XXSP,2013-01-26 15:53:00,
2013-01-26 07:58:00,25.7,21.2,29.99,NE,45,0.0,0.0,83,0.00,,,0.00,WUHU21623XXSP,2013-01-26 15:58:00,
2013-01-26 08:03:00,26.1,21.8,29.99,NE,45,0.0,0.0,84,0.00,,,0.00,WUHU21623XXSP,2013-01-26 16:03:00,
2013-01-26 08:08:00,26.4,22.2,29.99,NE,45,0.0,0.0,84,0.00,,,0.00,WUHU21623XXSP,2013-01-26 16:08:00,
2013-01-26 08:22:00,28.0,24.1,29.98,NE,45,0.0,0.0,85,0.00,,,0.00,WUHU21623XXSP,2013-01-26 16:22:00,
2013-01-26 08:27:00,28.6,24.9,29.99,NE,45,0.0,0.0,86,0.00,,,0.00,WUHU21623XXSP,2013-01-26 16:27:00,
2013-01-26 08:32:00,29.3,25.6,29.98,NE,45,0.0,0.0,86,0.00,,,0.00,WUHU21623XXSP,2013-01-26 16:32:00,
2013-01-26 08:37:00,30.4,27.0,29.98,NE,45,0.0,0.0,87,0.00,,,0.00,WUHU21623XXSP,2013-01-26 16:37:00,
2013-01-26 08:43:00,31.1,27.7,29.98,NE,45,0.0,0.0,87,0.00,,,0.00,WUHU21623XXSP,2013-01-26 16:43:00,
2013-01-26 08:48:00,32.4,29.2,29.98,ESE,112,0.0,0.0,88,0.00,,,0.00,WUHU21623XXSP,2013-01-26 16:48:00,
2013-01-26 08:53:00,33.1,29.9,29.97,East,90,0.0,0.0,88,0.00,,,0.00,WUHU21623XXSP,2013-01-26 16:53:00,
2013-01-26 08:58:00,34.3,30.4,29.98,NNE,22,0.0,0.0,87,0.00,,,0.00,WUHU21623XXSP,2013-01-26 16:58:00,
2013-01-26 09:05:00,35.2,32.0,29.98,NE,45,0.0,0.0,88,0.00,,,0.00,WUHU21623XXSP,2013-01-26 17:05:00,
2013-01-26 09:10:00,35.8,32.2,29.97,West,270,0.0,0.0,87,0.00,,,0.00,WUHU21623XXSP,2013-01-26 17:10:00,
2013-01-26 09:15:00,36.3,32.8,29.98,NNW,337,0.0,0.0,87,0.00,,,0.00,WUHU21623XXSP,2013-01-26 17:15:00,
2013-01-26 09:20:00,37.0,33.2,29.97,SE,135,0.0,0.0,86,0.00,,,0.00,WUHU21623XXSP,2013-01-26 17:20:00,
2013-01-26 09:25:00,37.4,33.7,29.98,West,270,0.0,0.0,87,0.00,,,0.00,WUHU21623XXSP,2013-01-26 17:25:00,
2013-01-26 09:31:00,37.8,33.9,29.98,SSW,202,0.9,0.9,86,0.00,,,0.00,WUHU21623XXSP,2013-01-26 17:31:00,
2013-01-26 09:36:00,37.9,34.1,29.98,South,180,0.0,0.9,86,0.00,,,0.00,WUHU21623XXSP,2013-01-26 17:36:00,
2013-01-26 09:46:00,38.5,34.3,29.98,NE,45,0.0,0.0,85,0.00,,,0.00,WUHU21623XXSP,2013-01-26 17:46:00,
2013-01-26 09:51:00,38.8,34.7,29.98,South,180,0.0,0.0,85,0.00,,,0.00,WUHU21623XXSP,2013-01-26 17:51:00,
2013-01-26 09:56:00,39.0,34.9,29.98,SSW,202,0.0,0.0,85,0.00,,,0.00,WUHU21623XXSP,2013-01-26 17:56:00,
2013-01-26 10:01:00,39.6,35.4,29.98,SW,225,0.0,0.0,85,0.00,,,0.00,WUHU21623XXSP,2013-01-26 18:01:00,
2013-01-26 10:06:00,39.7,35.6,29.97,South,180,0.0,0.0,85,0.00,,,0.00,WUHU21623XXSP,2013-01-26 18:06:00,
2013-01-26 10:14:00,40.1,35.6,29.97,NE,45,0.0,0.0,84,0.00,,,0.00,WUHU21623XXSP,2013-01-26 18:14:00,
2013-01-26 10:20:00,40.6,36.1,29.97,SE,135,0.0,0.0,84,0.00,,,0.00,WUHU21623XXSP,2013-01-26 18:20:00,
2013-01-26 10:25:00,40.8,36.3,29.97,East,90,0.0,0.0,84,0.00,,,0.00,WUHU21623XXSP,2013-01-26 18:25:00,
2013-01-26 10:30:00,41.2,36.3,29.97,SSE,157,0.0,0.0,84,0.00,,,0.00,WUHU21623XXSP,2013-01-26 18:30:00,
2013-01-26 10:35:00,41.5,37.0,29.96,SSE,157,0.0,0.0,84,0.00,,,0.00,WUHU21623XXSP,2013-01-26 18:35:00,
2013-01-26 10:40:00,41.9,37.2,29.96,South,180,0.0,0.0,84,0.00,,,0.00,WUHU21623XXSP,2013-01-26 18:40:00,
2013-01-26 10:48:00,42.8,38.3,29.96,WSW,247,0.0,0.0,84,0.00,,,0.00,WUHU21623XXSP,2013-01-26 18:48:00,
2013-01-26 10:53:00,43.5,38.8,29.96,North,0,0.0,0.0,84,0.00,,,0.00,WUHU21623XXSP,2013-01-26 18:53:00,
2013-01-26 10:58:00,43.9,39.3,29.96,NE,45,0.0,0.0,84,0.00,,,0.00,WUHU21623XXSP,2013-01-26 18:58:00,
2013-01-26 11:03:00,44.6,40.1,29.95,WSW,247,0.0,0.0,84,0.00,,,0.00,WUHU21623XXSP,2013-01-26 19:03:00,
2013-01-26 11:10:00,46.2,41.7,29.96,West,270,1.1,1.1,84,0.00,,,0.00,WUHU21623XXSP,2013-01-26 19:10:00,
2013-01-26 11:15:00,47.3,41.9,29.95,West,270,0.0,1.1,82,0.00,,,0.00,WUHU21623XXSP,2013-01-26 19:15:00,
2013-01-26 11:25:00,48.4,42.4,29.94,WSW,247,0.0,0.0,80,0.00,,,0.00,WUHU21623XXSP,2013-01-26 19:25:00,
2013-01-26 11:30:00,48.9,42.6,29.94,WNW,292,0.0,0.0,79,0.00,,,0.00,WUHU21623XXSP,2013-01-26 19:30:00,
2013-01-26 11:35:00,49.8,43.2,29.94,East,90,0.0,0.0,78,0.00,,,0.00,WUHU21623XXSP,2013-01-26 19:35:00,
2013-01-26 11:51:00,51.6,44.3,29.93,SSW,202,0.0,0.0,76,0.00,,,0.00,WUHU21623XXSP,2013-01-26 19:51:00,
2013-01-26 11:52:00,52.7,43.6,29.92,SSE,157,0.0,0.0,72,0.00,,,0.00,WUHU21623XXSP,2013-01-26 19:52:00,
2013-01-26 12:05:00,53.8,41.8,29.92,South,180,7.8,7.8,64,0.00,,,0.00,WUHU21623XXSP,2013-01-26 20:05:00,
2013-01-26 12:14:00,54.7,41.1,29.92,SSW,202,2.9,7.8,59,0.00,,,0.00,WUHU21623XXSP,2013-01-26 20:14:00,
2013-01-26 12:20:00,55.2,39.2,29.91,South,180,9.8,9.8,54,0.00,,,0.00,WUHU21623XXSP,2013-01-26 20:20:00,
2013-01-26 12:29:00,55.6,38.2,29.91,ESE,112,11.9,11.9,52,0.00,,,0.00,WUHU21623XXSP,2013-01-26 20:29:00,
2013-01-26 12:39:00,55.8,36.8,29.91,SW,225,0.9,0.9,49,0.00,,,0.00,WUHU21623XXSP,2013-01-26 20:39:00,
2013-01-26 12:42:00,55.8,36.8,29.91,SW,225,0.9,0.9,49,0.00,,,0.00,WUHU21623XXSP,2013-01-26 20:42:00,
2013-01-26 12:52:00,55.9,36.4,29.90,SW,225,6.9,6.9,48,0.00,,,0.00,WUHU21623XXSP,2013-01-26 20:52:00,
2013-01-26 13:03:00,56.1,35.5,29.90,South,180,13.4,13.4,46,0.00,,,0.00,WUHU21623XXSP,2013-01-26 21:03:00,
2013-01-26 13:16:00,55.9,34.2,29.89,SSW,202,19.7,19.7,44,0.00,,,0.00,WUHU21623XXSP,2013-01-26 21:16:00,
2013-01-26 13:27:00,55.6,33.3,29.89,South,180,13.4,13.4,43,0.00,,,0.00,WUHU21623XXSP,2013-01-26 21:27:00,
2013-01-26 13:31:00,55.6,33.3,29.89,SE,135,6.9,13.4,43,0.00,,,0.00,WUHU21623XXSP,2013-01-26 21:31:00,
2013-01-26 13:35:00,55.6,32.7,29.89,SSW,202,12.1,12.1,42,0.00,,,0.00,WUHU21623XXSP,2013-01-26 21:35:00,
2013-01-26 13:49:00,55.6,33.3,29.89,South,180,13.0,13.0,43,0.00,,,0.00,WUHU21623XXSP,2013-01-26 21:49:00,
2013-01-26 13:52:00,55.8,32.9,29.89,South,180,5.6,5.6,42,0.00,,,0.00,WUHU21623XXSP,2013-01-26 21:52:00,
2013-01-26 13:54:00,55.8,32.9,29.89,South,180,5.6,5.6,42,0.00,,,0.00,WUHU21623XXSP,2013-01-26 21:54:00,
2013-01-26 14:22:00,55.0,31.1,29.89,South,180,1.6,1.6,40,0.00,,,0.00,WUHU21623XXSP,2013-01-26 22:22:00,
2013-01-26 14:27:00,54.1,30.9,29.88,South,180,0.0,6.0,41,0.00,,,0.00,WUHU21623XXSP,2013-01-26 22:27:00,
2013-01-26 14:32:00,54.0,30.7,29.88,South,180,17.2,17.2,41,0.00,,,0.00,WUHU21623XXSP,2013-01-26 22:32:00,
2013-01-26 14:37:00,53.8,30.6,29.88,South,180,4.3,17.2,41,0.00,,,0.00,WUHU21623XXSP,2013-01-26 22:37:00,
2013-01-26 14:42:00,53.2,29.5,29.88,West,270,0.9,4.3,40,0.00,,,0.00,WUHU21623XXSP,2013-01-26 22:42:00,
2013-01-26 14:47:00,52.9,29.4,29.89,South,180,8.1,8.1,40,0.00,,,0.00,WUHU21623XXSP,2013-01-26 22:47:00,
2013-01-26 14:52:00,52.9,29.2,29.89,West,270,3.8,8.1,40,0.00,,,0.00,WUHU21623XXSP,2013-01-26 22:52:00,
2013-01-26 14:59:00,52.3,28.7,29.88,WSW,247,4.5,4.5,40,0.00,,,0.00,WUHU21623XXSP,2013-01-26 22:59:00,
2013-01-26 15:14:00,51.6,28.1,29.88,SE,135,2.2,2.2,40,0.00,,,0.00,WUHU21623XXSP,2013-01-26 23:14:00,
2013-01-26 15:19:00,51.6,28.1,29.88,East,90,0.0,2.2,40,0.00,,,0.00,WUHU21623XXSP,2013-01-26 23:19:00,
2013-01-26 15:24:00,51.4,28.5,29.88,SSE,157,0.0,0.0,41,0.00,,,0.00,WUHU21623XXSP,2013-01-26 23:24:00,
2013-01-26 15:29:00,51.3,27.9,29.88,SSW,202,12.1,12.1,39,0.00,,,0.00,WUHU21623XXSP,2013-01-26 23:29:00,
2013-01-26 15:46:00,50.7,25.9,29.88,South,180,5.1,5.1,38,0.00,,,0.00,WUHU21623XXSP,2013-01-26 23:46:00,
2013-01-26 15:52:00,50.4,26.9,29.88,SSW,202,5.4,5.4,40,0.00,,,0.00,WUHU21623XXSP,2013-01-26 23:52:00,
2013-01-26 15:57:00,50.2,25.4,29.88,SE,135,3.8,5.4,38,0.00,,,0.00,WUHU21623XXSP,2013-01-26 23:57:00,
2013-01-26 16:03:00,49.8,25.8,29.88,SSW,202,18.8,18.8,39,0.00,,,0.00,WUHU21623XXSP,2013-01-27 00:03:00,
2013-01-26 16:14:00,49.3,25.3,29.88,SSW,202,11.4,11.4,39,0.00,,,0.00,WUHU21623XXSP,2013-01-27 00:14:00,
2013-01-26 16:19:00,49.3,25.3,29.88,SSW,202,11.4,11.4,39,0.00,,,0.00,WUHU21623XXSP,2013-01-27 00:19:00,
2013-01-26 16:33:00,48.4,24.5,29.89,South,180,14.3,14.3,39,0.00,,,0.00,WUHU21623XXSP,2013-01-27 00:33:00,
2013-01-26 16:46:00,47.7,23.8,29.88,SSW,202,13.0,13.0,39,0.00,,,0.00,WUHU21623XXSP,2013-01-27 00:46:00,
2013-01-26 16:59:00,46.9,23.2,29.88,South,180,13.2,13.2,39,0.00,,,0.00,WUHU21623XXSP,2013-01-27 00:59:00,
2013-01-26 17:05:00,46.4,23.4,29.88,SW,225,10.5,13.2,40,0.00,,,0.00,WUHU21623XXSP,2013-01-27 01:05:00,
2013-01-26 17:10:00,46.0,23.6,29.88,South,180,5.4,10.5,41,0.00,,,0.00,WUHU21623XXSP,2013-01-27 01:10:00,
2013-01-26 17:18:00,45.3,22.9,29.88,NNW,337,4.7,5.4,41,0.00,,,0.00,WUHU21623XXSP,2013-01-27 01:18:00,
2013-01-26 17:33:00,44.8,23.0,29.89,SSE,157,14.8,14.8,42,0.00,,,0.00,WUHU21623XXSP,2013-01-27 01:33:00,
2013-01-26 17:54:00,43.7,23.3,29.89,South,180,5.8,5.8,44,0.00,,,0.00,WUHU21623XXSP,2013-01-27 01:54:00,
2013-01-26 18:05:00,43.3,23.3,29.90,SSW,202,12.3,12.3,45,0.00,,,0.00,WUHU21623XXSP,2013-01-27 02:05:00,
2013-01-26 18:11:00,43.2,23.7,29.90,SW,225,3.4,12.3,46,0.00,,,0.00,WUHU21623XXSP,2013-01-27 02:11:00,
2013-01-26 18:18:00,43.0,24.1,29.89,SSW,202,6.3,6.3,47,0.00,,,0.00,WUHU21623XXSP,2013-01-27 02:18:00,
2013-01-26 18:23:00,42.6,24.1,29.90,SW,225,4.0,6.3,48,0.00,,,0.00,WUHU21623XXSP,2013-01-27 02:23:00,
2013-01-26 18:28:00,42.6,23.7,29.90,SSE,157,8.3,8.3,47,0.00,,,0.00,WUHU21623XXSP,2013-01-27 02:28:00,
2013-01-26 18:33:00,42.6,23.2,29.90,ESE,112,0.0,8.3,46,0.00,,,0.00,WUHU21623XXSP,2013-01-27 02:33:00,
2013-01-26 18:39:00,42.6,23.2,29.90,SE,135,5.8,5.8,46,0.00,,,0.00,WUHU21623XXSP,2013-01-27 02:39:00,
2013-01-26 18:46:00,42.4,23.0,29.89,WSW,247,4.0,5.8,46,0.00,,,0.00,WUHU21623XXSP,2013-01-27 02:46:00,
2013-01-26 18:52:00,42.1,23.2,29.89,SW,225,12.3,12.3,47,0.00,,,0.00,WUHU21623XXSP,2013-01-27 02:52:00,
2013-01-26 19:03:00,41.7,23.4,29.89,SW,225,6.9,6.9,48,0.00,,,0.00,WUHU21623XXSP,2013-01-27 03:03:00,
2013-01-26 19:08:00,41.5,23.2,29.89,ENE,67,0.0,6.9,48,0.00,,,0.00,WUHU21623XXSP,2013-01-27 03:08:00,
2013-01-26 19:13:00,41.4,23.0,29.89,SSW,202,0.0,0.0,48,0.00,,,0.00,WUHU21623XXSP,2013-01-27 03:13:00,
2013-01-26 19:20:00,41.0,23.2,29.90,South,180,3.4,3.4,49,0.00,,,0.00,WUHU21623XXSP,2013-01-27 03:20:00,
2013-01-26 19:25:00,40.8,23.6,29.89,North,0,0.0,3.4,50,0.00,,,0.00,WUHU21623XXSP,2013-01-27 03:25:00,
2013-01-26 19:37:00,40.5,23.7,29.89,ESE,112,0.0,0.0,51,0.00,,,0.00,WUHU21623XXSP,2013-01-27 03:37:00,
2013-01-26 19:42:00,40.3,23.5,29.89,ESE,112,2.5,2.5,51,0.00,,,0.00,WUHU21623XXSP,2013-01-27 03:42:00,
2013-01-26 19:47:00,40.1,23.8,29.89,WNW,292,0.0,2.5,52,0.00,,,0.00,WUHU21623XXSP,2013-01-27 03:47:00,
2013-01-26 19:56:00,39.9,23.6,29.89,SW,225,2.9,2.9,52,0.00,,,0.00,WUHU21623XXSP,2013-01-27 03:56:00,
2013-01-26 20:01:00,39.7,23.4,29.89,SSW,202,2.2,2.9,52,0.00,,,0.00,WUHU21623XXSP,2013-01-27 04:01:00,
2013-01-26 20:06:00,39.6,23.3,29.89,SSE,157,2.9,2.9,53,0.00,,,0.00,WUHU21623XXSP,2013-01-27 04:06:00,
2013-01-26 20:13:00,39.2,23.4,29.89,SW,225,4.5,4.5,53,0.00,,,0.00,WUHU21623XXSP,2013-01-27 04:13:00,
2013-01-26 20:20:00,39.0,22.8,29.89,WSW,247,5.8,5.8,52,0.00,,,0.00,WUHU21623XXSP,2013-01-27 04:20:00,
2013-01-26 20:26:00,39.0,22.8,29.89,SSE,157,7.2,7.2,52,0.00,,,0.00,WUHU21623XXSP,2013-01-27 04:26:00,
2013-01-26 20:35:00,39.0,22.8,29.89,South,180,6.0,7.2,52,0.00,,,0.00,WUHU21623XXSP,2013-01-27 04:35:00,
2013-01-26 20:41:00,39.0,22.8,29.89,SW,225,13.0,13.0,52,0.00,,,0.00,WUHU21623XXSP,2013-01-27 04:41:00,
2013-01-26 20:50:00,39.0,22.4,29.89,South,180,5.6,13.0,51,0.00,,,0.00,WUHU21623XXSP,2013-01-27 04:50:00,
2013-01-26 21:01:00,39.2,22.5,29.89,SSW,202,11.6,11.6,51,0.00,,,0.00,WUHU21623XXSP,2013-01-27 05:01:00,
2013-01-26 21:02:00,39.2,22.5,29.89,SSW,202,11.6,11.6,51,0.00,,,0.00,WUHU21623XXSP,2013-01-27 05:02:00,
2013-01-26 21:22:00,39.6,21.9,29.90,South,180,13.0,13.0,49,0.00,,,0.00,WUHU21623XXSP,2013-01-27 05:22:00,
2013-01-26 21:32:00,39.9,22.2,29.90,SW,225,7.6,7.6,49,0.00,,,0.00,WUHU21623XXSP,2013-01-27 05:32:00,
2013-01-26 21:38:00,39.9,22.2,29.90,SSE,157,4.5,7.6,49,0.00,,,0.00,WUHU21623XXSP,2013-01-27 05:38:00,
2013-01-26 21:43:00,39.7,22.1,29.90,South,180,4.5,4.5,49,0.00,,,0.00,WUHU21623XXSP,2013-01-27 05:43:00,
2013-01-26 21:58:00,39.7,22.6,29.90,SSW,202,13.0,13.0,50,0.00,,,0.00,WUHU21623XXSP,2013-01-27 05:58:00,
2013-01-26 22:07:00,39.6,21.9,29.90,South,180,3.8,13.0,49,0.00,,,0.00,WUHU21623XXSP,2013-01-27 06:07:00,
2013-01-26 22:45:00,38.8,22.2,29.90,NNW,337,0.0,0.0,51,0.00,,,0.00,WUHU21623XXSP,2013-01-27 06:45:00,
2013-01-26 22:50:00,38.8,22.2,29.91,NNW,337,0.0,0.0,51,0.00,,,0.00,WUHU21623XXSP,2013-01-27 06:50:00,
2013-01-26 22:55:00,38.8,22.2,29.91,North,0,0.0,0.0,51,0.00,,,0.00,WUHU21623XXSP,2013-01-27 06:55:00,
2013-01-26 23:00:00,38.8,22.2,29.91,West,270,0.0,0.0,51,0.00,,,0.00,WUHU21623XXSP,2013-01-27 07:00:00,
2013-01-26 23:05:00,38.8,22.2,29.90,WNW,292,2.7,2.7,51,0.00,,,0.00,WUHU21623XXSP,2013-01-27 07:05:00,
2013-01-26 23:17:00,38.8,22.2,29.90,ENE,67,0.0,0.0,51,0.00,,,0.00,WUHU21623XXSP,2013-01-27 07:17:00,
2013-01-26 23:22:00,38.7,22.5,29.90,SE,135,0.0,0.0,52,0.00,,,0.00,WUHU21623XXSP,2013-01-27 07:22:00,
2013-01-26 23:28:00,38.5,22.3,29.90,South,180,5.1,5.1,52,0.00,,,0.00,WUHU21623XXSP,2013-01-27 07:28:00,
2013-01-26 23:37:00,38.5,22.3,29.90,SSW,202,8.3,8.3,52,0.00,,,0.00,WUHU21623XXSP,2013-01-27 07:37:00,
2013-01-26 23:43:00,38.3,22.6,29.90,WSW,247,9.8,9.8,53,0.00,,,0.00,WUHU21623XXSP,2013-01-27 07:43:00,
2013-01-26 23:56:00,38.3,22.6,29.90,South,180,2.9,2.9,53,0.00,,,0.00,WUHU21623XXSP,2013-01-27 07:56:00,